Location: Four Corners
(38.2757°N, 122.4608°W)
Time: 03:10:38
(UTC+00:00)

CORIOLIS - Pass Details

Date: 08 December 2019
Orbit: 817 x 839 km, 98.7° (Epoch: 25 January)

Event Time Altitude Azimuth Distance (km) Brightness Sun altitude
Rises 01:17:16 0° 150° (SSE) 3,374 7.3 -5.7°
Reaches altitude 10° 01:19:40 10° 145° (SE) 2,445 6.5 -6.2°
Maximum altitude 01:24:53 49° 71° (ENE) 1,068 4.4 -7.1°
Drops below altitude 10° 01:30:07 10° 358° (N) 2,462 6.4 -8.1°
Sets 01:32:33 0° 353° (N) 3,400 7.2 -8.5°
